Time,TemperatureF,DewpointF,PressureIn,WindDirection,WindDirectionDegrees,WindSpeedMPH,WindSpeedGustMPH,Humidity,HourlyPrecipIn,Conditions,Clouds,dailyrainin,SoftwareType,DateUTC
2013-05-07 00:01:00,47.3,41.1,29.67,South,180,0.0,0.0,79,0.00,RA,,0.00,WeatherDisplay:10.37,2013-05-07 04:01:00,
2013-05-07 00:02:00,47.3,41.1,29.67,South,180,0.0,0.0,79,0.00,RA,,0.00,WeatherDisplay:10.37,2013-05-07 04:02:00,
2013-05-07 00:04:00,47.1,40.9,29.67,South,180,0.0,0.0,79,0.00,RA,,0.00,WeatherDisplay:10.37,2013-05-07 04:04:00,
2013-05-07 00:09:00,47.1,40.9,29.67,South,180,0.0,0.0,79,0.00,RA,,0.00,WeatherDisplay:10.37,2013-05-07 04:09:00,
2013-05-07 00:14:00,47.1,40.9,29.67,South,180,0.0,0.0,79,0.00,,,0.00,WeatherDisplay:10.37,2013-05-07 04:14:00,
2013-05-07 00:19:00,46.9,40.8,29.67,South,180,0.0,0.0,79,0.00,,,0.00,WeatherDisplay:10.37,2013-05-07 04:19:00,
2013-05-07 00:24:00,46.9,41.1,29.67,South,180,0.0,0.0,80,0.00,,,0.00,WeatherDisplay:10.37,2013-05-07 04:24:00,
2013-05-07 00:29:00,46.6,40.7,29.66,South,180,0.0,0.0,80,0.00,,,0.00,WeatherDisplay:10.37,2013-05-07 04:29:00,
2013-05-07 00:34:00,46.6,40.7,29.67,South,180,0.0,0.0,80,0.00,,,0.00,WeatherDisplay:10.37,2013-05-07 04:34:00,
2013-05-07 00:39:00,46.6,40.7,29.67,South,180,0.0,0.0,80,0.00,,,0.00,WeatherDisplay:10.37,2013-05-07 04:39:00,
2013-05-07 00:44:00,46.6,40.7,29.67,South,180,0.0,0.0,80,0.00,,,0.00,WeatherDisplay:10.37,2013-05-07 04:44:00,
2013-05-07 00:49:00,46.6,40.7,29.67,South,180,0.0,0.0,80,0.00,,,0.00,WeatherDisplay:10.37,2013-05-07 04:49:00,
2013-05-07 00:54:00,46.2,40.4,29.67,South,180,0.0,0.0,80,0.00,,,0.00,WeatherDisplay:10.37,2013-05-07 04:54:00,
2013-05-07 00:59:00,46.0,40.5,29.67,South,180,0.0,0.0,81,0.00,,,0.00,WeatherDisplay:10.37,2013-05-07 04:59:00,
2013-05-07 01:04:00,46.0,40.5,29.67,South,180,0.0,0.0,81,0.00,,,0.00,WeatherDisplay:10.37,2013-05-07 05:04:00,
2013-05-07 01:09:00,45.9,40.4,29.67,South,180,0.0,0.0,81,0.00,,,0.00,WeatherDisplay:10.37,2013-05-07 05:09:00,
2013-05-07 01:14:00,45.7,40.5,29.67,South,180,0.0,0.0,82,0.00,,,0.00,WeatherDisplay:10.37,2013-05-07 05:14:00,
2013-05-07 01:19:00,45.7,40.5,29.67,South,180,0.0,0.0,82,0.00,,,0.00,WeatherDisplay:10.37,2013-05-07 05:19:00,
2013-05-07 01:24:00,46.0,40.9,29.67,South,180,0.0,0.0,82,0.00,,,0.00,WeatherDisplay:10.37,2013-05-07 05:24:00,
2013-05-07 01:29:00,46.0,40.9,29.67,South,180,0.0,0.0,82,0.00,,,0.00,WeatherDisplay:10.37,2013-05-07 05:29:00,
2013-05-07 01:34:00,46.0,41.2,29.66,South,180,0.0,0.0,83,0.00,,,0.00,WeatherDisplay:10.37,2013-05-07 05:34:00,
2013-05-07 01:39:00,46.0,41.2,29.66,South,180,0.0,0.0,83,0.00,,,0.00,WeatherDisplay:10.37,2013-05-07 05:39:00,
2013-05-07 01:44:00,46.2,41.3,29.66,South,180,0.0,0.0,83,0.00,,,0.00,WeatherDisplay:10.37,2013-05-07 05:44:00,
2013-05-07 01:49:00,46.2,41.3,29.66,South,180,0.0,0.0,83,0.00,,,0.00,WeatherDisplay:10.37,2013-05-07 05:49:00,
2013-05-07 01:54:00,46.2,41.3,29.65,South,180,0.0,0.0,83,0.00,,,0.00,WeatherDisplay:10.37,2013-05-07 05:54:00,
2013-05-07 01:59:00,46.2,41.3,29.66,South,180,0.0,0.0,83,0.00,,,0.00,WeatherDisplay:10.37,2013-05-07 05:59:00,
2013-05-07 02:04:00,46.2,41.3,29.65,South,180,0.0,0.0,83,0.00,,,0.00,WeatherDisplay:10.37,2013-05-07 06:04:00,
2013-05-07 02:09:00,46.2,41.3,29.65,South,180,0.0,0.0,83,0.00,,,0.00,WeatherDisplay:10.37,2013-05-07 06:09:00,
2013-05-07 02:14:00,46.0,41.2,29.66,South,180,0.0,0.0,83,0.00,,,0.00,WeatherDisplay:10.37,2013-05-07 06:14:00,
2013-05-07 02:19:00,46.0,41.2,29.65,South,180,0.0,0.0,83,0.00,,,0.00,WeatherDisplay:10.37,2013-05-07 06:19:00,
2013-05-07 02:24:00,46.0,41.2,29.65,South,180,0.0,0.0,83,0.00,,,0.00,WeatherDisplay:10.37,2013-05-07 06:24:00,
2013-05-07 02:29:00,45.7,40.8,29.65,South,180,0.0,0.0,83,0.00,,,0.00,WeatherDisplay:10.37,2013-05-07 06:29:00,
2013-05-07 02:34:00,45.7,40.8,29.64,South,180,0.0,0.0,83,0.00,,,0.00,WeatherDisplay:10.37,2013-05-07 06:34:00,
2013-05-07 02:39:00,45.7,40.8,29.64,South,180,0.0,0.0,83,0.00,,,0.00,WeatherDisplay:10.37,2013-05-07 06:39:00,
2013-05-07 02:44:00,45.7,40.8,29.65,South,180,0.0,0.0,83,0.00,,,0.00,WeatherDisplay:10.37,2013-05-07 06:44:00,
2013-05-07 02:49:00,45.7,40.8,29.64,South,180,0.0,0.0,83,0.00,,,0.00,WeatherDisplay:10.37,2013-05-07 06:49:00,
2013-05-07 02:54:00,45.7,40.8,29.64,South,180,0.0,0.0,83,0.00,,,0.00,WeatherDisplay:10.37,2013-05-07 06:54:00,
2013-05-07 02:59:00,45.7,41.1,29.65,South,180,0.0,0.0,84,0.00,,,0.00,WeatherDisplay:10.37,2013-05-07 06:59:00,
2013-05-07 03:04:00,45.7,41.1,29.64,South,180,0.0,0.0,84,0.00,,,0.00,WeatherDisplay:10.37,2013-05-07 07:04:00,
2013-05-07 03:09:00,45.3,40.8,29.64,South,180,0.0,0.0,84,0.00,,,0.00,WeatherDisplay:10.37,2013-05-07 07:09:00,
2013-05-07 03:14:00,45.3,40.8,29.65,South,180,0.0,0.0,84,0.00,,,0.00,WeatherDisplay:10.37,2013-05-07 07:14:00,
2013-05-07 03:19:00,45.3,41.1,29.64,South,180,0.0,0.0,85,0.00,,,0.00,WeatherDisplay:10.37,2013-05-07 07:19:00,
2013-05-07 03:24:00,45.1,40.9,29.64,South,180,0.0,0.0,85,0.00,,,0.00,WeatherDisplay:10.37,2013-05-07 07:24:00,
2013-05-07 03:29:00,45.1,40.9,29.64,South,180,0.0,0.0,85,0.00,,,0.00,WeatherDisplay:10.37,2013-05-07 07:29:00,
2013-05-07 03:34:00,45.3,41.1,29.64,South,180,0.0,0.0,85,0.00,,,0.00,WeatherDisplay:10.37,2013-05-07 07:34:00,
2013-05-07 03:39:00,45.3,41.1,29.64,South,180,0.0,0.0,85,0.00,,,0.00,WeatherDisplay:10.37,2013-05-07 07:39:00,
2013-05-07 03:44:00,45.5,41.3,29.64,South,180,0.0,0.0,85,0.00,,,0.00,WeatherDisplay:10.37,2013-05-07 07:44:00,
2013-05-07 03:49:00,45.5,41.3,29.64,South,180,0.0,0.0,85,0.00,,,0.00,WeatherDisplay:10.37,2013-05-07 07:49:00,
2013-05-07 03:54:00,45.3,41.1,29.64,South,180,0.0,0.0,85,0.00,,,0.00,WeatherDisplay:10.37,2013-05-07 07:54:00,
2013-05-07 03:59:00,45.3,40.8,29.64,South,180,0.0,0.0,84,0.00,,,0.00,WeatherDisplay:10.37,2013-05-07 07:59:00,
2013-05-07 04:04:00,45.1,40.6,29.64,South,180,0.0,0.0,84,0.00,,,0.00,WeatherDisplay:10.37,2013-05-07 08:04:00,
2013-05-07 04:09:00,45.0,40.1,29.64,South,180,0.0,0.0,83,0.00,,,0.00,WeatherDisplay:10.37,2013-05-07 08:09:00,
2013-05-07 04:14:00,44.8,39.9,29.64,South,180,0.0,0.0,83,0.00,,,0.00,WeatherDisplay:10.37,2013-05-07 08:14:00,
2013-05-07 04:19:00,44.4,39.6,29.64,South,180,0.0,0.0,83,0.00,,,0.00,WeatherDisplay:10.37,2013-05-07 08:19:00,
2013-05-07 04:24:00,44.4,39.9,29.64,South,180,0.0,0.0,84,0.00,,,0.00,WeatherDisplay:10.37,2013-05-07 08:24:00,
2013-05-07 04:29:00,44.4,39.9,29.63,South,180,0.0,0.0,84,0.00,,,0.00,WeatherDisplay:10.37,2013-05-07 08:29:00,
2013-05-07 04:34:00,44.4,39.9,29.63,South,180,0.0,0.0,84,0.00,,,0.00,WeatherDisplay:10.37,2013-05-07 08:34:00,
2013-05-07 04:39:00,44.4,39.9,29.63,South,180,0.0,0.0,84,0.00,,,0.00,WeatherDisplay:10.37,2013-05-07 08:39:00,
2013-05-07 04:44:00,44.6,40.1,29.63,South,180,0.0,0.0,84,0.00,,,0.00,WeatherDisplay:10.37,2013-05-07 08:44:00,
2013-05-07 04:49:00,44.6,40.1,29.63,South,180,0.0,0.0,84,0.00,,,0.00,WeatherDisplay:10.37,2013-05-07 08:49:00,
2013-05-07 04:54:00,44.4,39.6,29.64,South,180,0.0,0.0,83,0.00,,,0.00,WeatherDisplay:10.37,2013-05-07 08:54:00,
2013-05-07 04:59:00,44.2,39.4,29.63,South,180,0.0,0.0,83,0.00,,,0.00,WeatherDisplay:10.37,2013-05-07 08:59:00,
2013-05-07 05:04:00,44.1,39.2,29.64,South,180,0.0,0.0,83,0.00,,,0.00,WeatherDisplay:10.37,2013-05-07 09:04:00,
2013-05-07 05:09:00,43.9,39.1,29.64,South,180,0.0,0.0,83,0.00,,,0.00,WeatherDisplay:10.37,2013-05-07 09:09:00,
2013-05-07 05:14:00,43.9,39.4,29.63,South,180,0.0,0.0,84,0.00,,,0.00,WeatherDisplay:10.37,2013-05-07 09:14:00,
2013-05-07 05:19:00,43.7,39.2,29.63,South,180,0.0,0.0,84,0.00,,,0.00,WeatherDisplay:10.37,2013-05-07 09:19:00,
2013-05-07 05:24:00,43.9,39.7,29.64,South,180,0.0,0.0,85,0.00,,,0.00,WeatherDisplay:10.37,2013-05-07 09:24:00,
2013-05-07 05:29:00,44.1,39.8,29.63,South,180,0.0,0.0,85,0.00,,,0.00,WeatherDisplay:10.37,2013-05-07 09:29:00,
2013-05-07 05:34:00,43.9,39.4,29.63,South,180,0.0,0.0,84,0.00,,,0.00,WeatherDisplay:10.37,2013-05-07 09:34:00,
2013-05-07 05:39:00,43.9,39.4,29.63,South,180,0.0,0.0,84,0.00,,,0.00,WeatherDisplay:10.37,2013-05-07 09:39:00,
2013-05-07 05:44:00,43.5,39.0,29.63,South,180,0.0,0.0,84,0.00,,,0.00,WeatherDisplay:10.37,2013-05-07 09:44:00,
2013-05-07 05:49:00,43.3,38.8,29.63,South,180,0.0,0.0,84,0.00,,,0.00,WeatherDisplay:10.37,2013-05-07 09:49:00,
2013-05-07 05:54:00,43.2,38.7,29.64,South,180,0.0,0.0,84,0.00,,,0.00,WeatherDisplay:10.37,2013-05-07 09:54:00,
2013-05-07 05:59:00,43.0,38.5,29.64,South,180,0.0,0.0,84,0.00,,,0.00,WeatherDisplay:10.37,2013-05-07 09:59:00,
2013-05-07 06:04:00,43.0,38.5,29.64,South,180,0.0,0.0,84,0.00,,,0.00,WeatherDisplay:10.37,2013-05-07 10:04:00,
2013-05-07 06:09:00,43.0,38.5,29.64,South,180,0.0,0.0,84,0.00,,,0.00,WeatherDisplay:10.37,2013-05-07 10:09:00,
2013-05-07 06:14:00,43.0,38.5,29.64,South,180,0.0,0.0,84,0.00,,,0.00,WeatherDisplay:10.37,2013-05-07 10:14:00,
2013-05-07 06:19:00,43.0,38.5,29.64,South,180,0.0,0.0,84,0.00,,,0.00,WeatherDisplay:10.37,2013-05-07 10:19:00,
2013-05-07 06:24:00,42.6,38.1,29.64,South,180,0.0,0.0,84,0.00,,,0.00,WeatherDisplay:10.37,2013-05-07 10:24:00,
2013-05-07 06:29:00,42.6,38.4,29.64,South,180,0.0,0.0,85,0.00,,,0.00,WeatherDisplay:10.37,2013-05-07 10:29:00,
2013-05-07 06:34:00,42.8,38.6,29.65,South,180,0.0,0.0,85,0.00,,,0.00,WeatherDisplay:10.37,2013-05-07 10:34:00,
2013-05-07 06:39:00,43.0,38.8,29.65,South,180,0.0,0.0,85,0.00,,,0.00,WeatherDisplay:10.37,2013-05-07 10:39:00,
2013-05-07 06:44:00,43.0,38.8,29.66,South,180,0.0,0.0,85,0.00,,,0.00,WeatherDisplay:10.37,2013-05-07 10:44:00,
2013-05-07 06:49:00,42.8,38.6,29.66,South,180,0.0,0.0,85,0.00,,,0.00,WeatherDisplay:10.37,2013-05-07 10:49:00,
2013-05-07 06:54:00,42.8,38.6,29.66,South,180,0.0,0.0,85,0.00,,,0.00,WeatherDisplay:10.37,2013-05-07 10:54:00,
2013-05-07 06:59:00,42.6,38.1,29.66,South,180,0.0,0.0,84,0.00,,,0.00,WeatherDisplay:10.37,2013-05-07 10:59:00,
2013-05-07 07:04:00,42.4,37.9,29.66,South,180,0.0,0.0,84,0.00,,,0.00,WeatherDisplay:10.37,2013-05-07 11:04:00,
2013-05-07 07:09:00,42.6,38.4,29.67,South,180,0.0,0.0,85,0.00,,,0.00,WeatherDisplay:10.37,2013-05-07 11:09:00,
2013-05-07 07:14:00,42.6,38.4,29.67,South,180,0.0,0.0,85,0.00,,,0.00,WeatherDisplay:10.37,2013-05-07 11:14:00,
2013-05-07 07:19:00,42.6,38.7,29.67,South,180,0.0,0.0,86,0.00,,,0.00,WeatherDisplay:10.37,2013-05-07 11:19:00,
2013-05-07 07:24:00,42.6,38.7,29.67,South,180,0.0,0.0,86,0.00,,,0.00,WeatherDisplay:10.37,2013-05-07 11:24:00,
2013-05-07 07:29:00,43.0,39.1,29.67,South,180,0.0,0.0,86,0.00,,,0.00,WeatherDisplay:10.37,2013-05-07 11:29:00,
2013-05-07 07:34:00,43.2,39.3,29.67,South,180,0.0,0.0,86,0.00,,,0.00,WeatherDisplay:10.37,2013-05-07 11:34:00,
2013-05-07 07:39:00,43.5,39.6,29.67,South,180,0.0,0.0,86,0.00,,,0.00,WeatherDisplay:10.37,2013-05-07 11:39:00,
2013-05-07 07:44:00,43.5,39.6,29.67,South,180,0.0,0.0,86,0.00,,,0.00,WeatherDisplay:10.37,2013-05-07 11:44:00,
2013-05-07 07:49:00,43.9,40.0,29.67,South,180,0.0,0.0,86,0.00,,,0.00,WeatherDisplay:10.37,2013-05-07 11:49:00,
2013-05-07 07:54:00,43.9,40.0,29.67,South,180,0.0,0.0,86,0.00,,,0.00,WeatherDisplay:10.37,2013-05-07 11:54:00,
2013-05-07 07:59:00,44.2,40.3,29.67,South,180,0.0,0.0,86,0.00,,,0.00,WeatherDisplay:10.37,2013-05-07 11:59:00,
2013-05-07 08:04:00,44.4,40.5,29.67,South,180,0.0,0.0,86,0.00,,,0.00,WeatherDisplay:10.37,2013-05-07 12:04:00,
2013-05-07 08:09:00,44.4,40.5,29.67,South,180,0.0,0.0,86,0.00,,,0.00,WeatherDisplay:10.37,2013-05-07 12:09:00,
2013-05-07 08:14:00,44.8,40.8,29.67,South,180,0.0,0.0,86,0.00,,,0.00,WeatherDisplay:10.37,2013-05-07 12:14:00,
2013-05-07 08:19:00,45.0,41.0,29.67,South,180,0.0,0.0,86,0.00,,,0.00,WeatherDisplay:10.37,2013-05-07 12:19:00,
2013-05-07 08:24:00,45.1,41.2,29.68,South,180,0.0,0.0,86,0.00,,,0.00,WeatherDisplay:10.37,2013-05-07 12:24:00,
2013-05-07 08:29:00,45.3,41.4,29.68,South,180,0.0,0.0,86,0.00,,,0.00,WeatherDisplay:10.37,2013-05-07 12:29:00,
2013-05-07 08:34:00,45.7,41.7,29.68,South,180,0.0,0.0,86,0.00,,,0.00,WeatherDisplay:10.37,2013-05-07 12:34:00,
2013-05-07 08:39:00,45.7,41.7,29.69,South,180,0.0,0.0,86,0.00,,,0.00,WeatherDisplay:10.37,2013-05-07 12:39:00,
2013-05-07 08:44:00,46.0,42.1,29.69,South,180,0.0,0.0,86,0.00,,,0.00,WeatherDisplay:10.37,2013-05-07 12:44:00,
2013-05-07 08:49:00,46.0,42.1,29.69,South,180,0.0,0.0,86,0.00,,,0.00,WeatherDisplay:10.37,2013-05-07 12:49:00,
2013-05-07 08:54:00,46.0,41.8,29.69,South,180,0.0,0.0,85,0.00,,,0.00,WeatherDisplay:10.37,2013-05-07 12:54:00,
2013-05-07 08:59:00,46.2,42.0,29.70,South,180,0.0,0.0,85,0.00,,,0.00,WeatherDisplay:10.37,2013-05-07 12:59:00,
2013-05-07 09:04:00,46.2,42.0,29.70,South,180,0.0,0.0,85,0.00,,,0.00,WeatherDisplay:10.37,2013-05-07 13:04:00,
2013-05-07 09:09:00,46.6,42.3,29.69,South,180,0.0,0.0,85,0.00,,,0.00,WeatherDisplay:10.37,2013-05-07 13:09:00,
2013-05-07 09:14:00,46.8,42.5,29.70,South,180,0.0,0.0,85,0.00,,,0.00,WeatherDisplay:10.37,2013-05-07 13:14:00,
2013-05-07 09:19:00,46.9,42.7,29.70,SSE,158,0.2,0.0,85,0.00,,,0.00,WeatherDisplay:10.37,2013-05-07 13:19:00,
2013-05-07 09:24:00,47.5,43.2,29.70,South,180,0.0,0.0,85,0.00,,,0.00,WeatherDisplay:10.37,2013-05-07 13:24:00,
2013-05-07 09:29:00,47.8,43.5,29.69,SSE,158,0.0,0.0,85,0.00,,,0.00,WeatherDisplay:10.37,2013-05-07 13:29:00,
2013-05-07 09:34:00,48.2,43.9,29.70,SSW,202,0.0,0.0,85,0.00,,,0.00,WeatherDisplay:10.37,2013-05-07 13:34:00,
2013-05-07 09:39:00,48.7,44.4,29.70,SSW,202,0.0,0.0,85,0.00,,,0.00,WeatherDisplay:10.37,2013-05-07 13:39:00,
2013-05-07 09:44:00,49.3,44.6,29.69,South,180,0.0,0.0,84,0.00,,,0.00,WeatherDisplay:10.37,2013-05-07 13:44:00,
2013-05-07 09:49:00,49.6,45.0,29.69,South,180,0.0,0.0,84,0.00,,,0.00,WeatherDisplay:10.37,2013-05-07 13:49:00,
2013-05-07 09:54:00,49.8,45.2,29.69,SSW,202,0.0,0.0,84,0.00,,,0.00,WeatherDisplay:10.37,2013-05-07 13:54:00,
2013-05-07 09:59:00,50.4,45.7,29.69,SSE,158,0.0,0.0,84,0.00,,,0.00,WeatherDisplay:10.37,2013-05-07 13:59:00,
2013-05-07 10:04:00,50.7,45.7,29.69,SSE,158,0.0,0.0,83,0.00,,,0.00,WeatherDisplay:10.37,2013-05-07 14:04:00,
2013-05-07 10:09:00,51.1,46.1,29.69,SSE,158,0.0,0.0,83,0.00,,,0.00,WeatherDisplay:10.37,2013-05-07 14:09:00,
2013-05-07 10:14:00,51.4,46.4,29.69,SSE,158,0.0,0.0,83,0.00,,,0.00,WeatherDisplay:10.37,2013-05-07 14:14:00,
2013-05-07 10:19:00,52.0,47.0,29.69,South,180,0.0,0.0,83,0.00,,,0.00,WeatherDisplay:10.37,2013-05-07 14:19:00,
2013-05-07 10:24:00,52.5,47.5,29.69,South,180,0.0,0.0,83,0.00,,,0.00,WeatherDisplay:10.37,2013-05-07 14:24:00,
2013-05-07 10:29:00,53.2,48.2,29.69,SSE,158,0.0,0.0,83,0.00,,,0.00,WeatherDisplay:10.37,2013-05-07 14:29:00,
2013-05-07 10:34:00,53.8,48.1,29.69,SSE,158,0.0,0.0,81,0.00,,,0.00,WeatherDisplay:10.37,2013-05-07 14:34:00,
2013-05-07 10:39:00,54.1,48.4,29.69,SSE,158,0.0,0.0,81,0.00,,,0.00,WeatherDisplay:10.37,2013-05-07 14:39:00,
2013-05-07 10:44:00,54.7,49.0,29.68,SW,225,0.3,1.3,81,0.00,,,0.00,WeatherDisplay:10.37,2013-05-07 14:44:00,
2013-05-07 10:49:00,55.2,49.2,29.68,WSW,248,0.0,0.0,80,0.00,,,0.00,WeatherDisplay:10.37,2013-05-07 14:49:00,
2013-05-07 10:54:00,55.9,49.9,29.68,South,180,0.0,0.0,80,0.00,,,0.00,WeatherDisplay:10.37,2013-05-07 14:54:00,
2013-05-07 10:59:00,56.5,50.0,29.69,SW,225,0.0,0.0,79,0.00,,,0.00,WeatherDisplay:10.37,2013-05-07 14:59:00,
2013-05-07 11:04:00,57.4,50.6,29.68,South,180,0.0,0.0,78,0.00,,,0.00,WeatherDisplay:10.37,2013-05-07 15:04:00,
2013-05-07 11:09:00,57.7,50.6,29.69,WSW,248,0.0,0.0,77,0.00,,,0.00,WeatherDisplay:10.37,2013-05-07 15:09:00,
2013-05-07 11:14:00,57.9,50.4,29.68,SSW,202,0.0,0.0,76,0.00,,,0.00,WeatherDisplay:10.37,2013-05-07 15:14:00,
2013-05-07 11:19:00,57.7,48.8,29.68,SSW,202,0.0,0.0,72,0.00,,,0.00,WeatherDisplay:10.37,2013-05-07 15:19:00,
2013-05-07 11:24:00,57.7,47.6,29.68,South,180,0.0,0.0,69,0.00,,,0.00,WeatherDisplay:10.37,2013-05-07 15:24:00,
2013-05-07 11:29:00,58.3,48.2,29.68,SSE,158,0.0,0.0,69,0.00,,,0.00,WeatherDisplay:10.37,2013-05-07 15:29:00,
2013-05-07 11:34:00,59.2,49.0,29.68,SE,135,0.0,0.0,69,0.00,,,0.00,WeatherDisplay:10.37,2013-05-07 15:34:00,
2013-05-07 11:39:00,60.1,49.5,29.68,South,180,0.0,0.0,68,0.00,,,0.00,WeatherDisplay:10.37,2013-05-07 15:39:00,
2013-05-07 11:44:00,61.3,50.7,29.68,NE,45,0.0,0.0,68,0.00,,,0.00,WeatherDisplay:10.37,2013-05-07 15:44:00,
2013-05-07 11:49:00,62.6,50.2,29.68,SSE,158,0.1,1.1,64,0.00,,,0.00,WeatherDisplay:10.37,2013-05-07 15:49:00,
2013-05-07 11:54:00,64.0,51.6,29.68,South,180,0.1,1.1,64,0.00,,,0.00,WeatherDisplay:10.37,2013-05-07 15:54:00,
2013-05-07 11:59:00,65.5,52.1,29.68,South,180,1.0,2.3,62,0.00,,,0.00,WeatherDisplay:10.37,2013-05-07 15:59:00,
2013-05-07 12:04:00,66.7,52.0,29.67,WSW,248,0.6,4.5,59,0.00,,,0.00,WeatherDisplay:10.37,2013-05-07 16:04:00,
2013-05-07 12:09:00,67.8,52.5,29.68,SSE,158,0.0,2.3,58,0.00,,,0.00,WeatherDisplay:10.37,2013-05-07 16:09:00,
2013-05-07 12:14:00,68.7,51.9,29.68,SE,135,0.0,1.1,55,0.00,,,0.00,WeatherDisplay:10.37,2013-05-07 16:14:00,
2013-05-07 12:19:00,69.3,51.4,29.67,South,180,0.0,0.0,53,0.00,,,0.00,WeatherDisplay:10.37,2013-05-07 16:19:00,
2013-05-07 12:24:00,69.4,51.6,29.68,South,180,0.8,1.1,53,0.00,,,0.00,WeatherDisplay:10.37,2013-05-07 16:24:00,
2013-05-07 12:29:00,70.0,51.5,29.67,SSW,202,0.3,2.7,52,0.00,,,0.00,WeatherDisplay:10.37,2013-05-07 16:29:00,
2013-05-07 12:34:00,70.9,51.8,29.67,South,180,1.6,0.0,51,0.00,,,0.00,WeatherDisplay:10.37,2013-05-07 16:34:00,
2013-05-07 12:39:00,72.3,52.1,29.67,SSE,158,0.0,0.0,49,0.00,,,0.00,WeatherDisplay:10.37,2013-05-07 16:39:00,
2013-05-07 12:44:00,73.2,52.3,29.67,SSE,158,0.0,0.0,48,0.00,,,0.00,WeatherDisplay:10.37,2013-05-07 16:44:00,
2013-05-07 12:49:00,73.9,51.8,29.67,SSE,158,0.3,0.0,46,0.00,,,0.00,WeatherDisplay:10.37,2013-05-07 16:49:00,
2013-05-07 12:54:00,74.5,51.1,29.66,South,180,0.0,0.0,44,0.00,,,0.00,WeatherDisplay:10.37,2013-05-07 16:54:00,
2013-05-07 12:59:00,75.0,51.0,29.66,South,180,0.0,0.0,43,0.00,,,0.00,WeatherDisplay:10.37,2013-05-07 16:59:00,
2013-05-07 13:04:00,75.4,51.3,29.66,East,90,1.5,5.8,43,0.00,,,0.00,WeatherDisplay:10.37,2013-05-07 17:04:00,
2013-05-07 13:09:00,75.4,50.7,29.67,South,180,0.0,0.0,42,0.00,,,0.00,WeatherDisplay:10.37,2013-05-07 17:09:00,
2013-05-07 13:14:00,75.7,50.4,29.67,South,180,0.3,1.1,41,0.00,,,0.00,WeatherDisplay:10.37,2013-05-07 17:14:00,
2013-05-07 13:19:00,76.1,47.9,29.67,North,0,0.0,0.0,37,0.00,,,0.00,WeatherDisplay:10.37,2013-05-07 17:19:00,
2013-05-07 13:24:00,75.9,47.8,29.66,SE,135,0.0,0.0,37,0.00,,,0.00,WeatherDisplay:10.37,2013-05-07 17:24:00,
2013-05-07 13:29:00,76.1,47.2,29.66,SSW,202,0.0,0.0,36,0.00,,,0.00,WeatherDisplay:10.37,2013-05-07 17:29:00,
2013-05-07 13:34:00,76.3,48.1,29.66,SSE,158,0.0,4.6,37,0.00,,,0.00,WeatherDisplay:10.37,2013-05-07 17:34:00,
2013-05-07 13:39:00,76.8,50.0,29.66,SSE,158,0.0,0.0,39,0.00,,,0.00,WeatherDisplay:10.37,2013-05-07 17:39:00,
2013-05-07 13:44:00,77.5,49.9,29.66,South,180,0.0,0.0,38,0.00,,,0.00,WeatherDisplay:10.37,2013-05-07 17:44:00,
2013-05-07 13:49:00,77.9,48.8,29.65,SSE,158,0.4,0.0,36,0.00,,,0.00,WeatherDisplay:10.37,2013-05-07 17:49:00,
2013-05-07 13:54:00,78.1,48.2,29.65,WSW,248,0.0,5.8,35,0.00,,,0.00,WeatherDisplay:10.37,2013-05-07 17:54:00,
2013-05-07 13:59:00,76.8,47.8,29.66,South,180,0.0,0.0,36,0.00,,,0.00,WeatherDisplay:10.37,2013-05-07 17:59:00,
2013-05-07 14:04:00,75.2,46.4,29.66,South,180,0.0,0.0,36,0.00,,,0.00,WeatherDisplay:10.37,2013-05-07 18:04:00,
2013-05-07 14:09:00,73.0,45.9,29.65,South,180,0.0,0.0,38,0.00,,,0.00,WeatherDisplay:10.37,2013-05-07 18:09:00,
2013-05-07 14:14:00,72.0,45.6,29.65,SSE,158,0.0,0.0,39,0.00,,,0.00,WeatherDisplay:10.37,2013-05-07 18:14:00,
2013-05-07 14:19:00,71.2,45.7,29.66,SE,135,0.0,0.0,40,0.00,,,0.00,WeatherDisplay:10.37,2013-05-07 18:19:00,
2013-05-07 14:24:00,71.1,45.5,29.66,SW,225,0.8,4.6,40,0.00,,,0.00,WeatherDisplay:10.37,2013-05-07 18:24:00,
2013-05-07 14:29:00,70.5,45.7,29.66,SSE,158,0.0,0.0,41,0.00,,,0.00,WeatherDisplay:10.37,2013-05-07 18:29:00,
2013-05-07 14:34:00,70.0,46.4,29.65,SSE,158,0.0,0.0,43,0.00,,,0.00,WeatherDisplay:10.37,2013-05-07 18:34:00,
2013-05-07 14:39:00,69.3,46.4,29.66,SE,135,0.0,0.0,44,0.00,,,0.00,WeatherDisplay:10.37,2013-05-07 18:39:00,
2013-05-07 14:44:00,68.9,46.7,29.66,SSE,158,0.0,0.0,45,0.00,,,0.00,WeatherDisplay:10.37,2013-05-07 18:44:00,
2013-05-07 14:49:00,68.5,46.3,29.65,SW,225,0.0,0.0,45,0.00,,,0.00,WeatherDisplay:10.37,2013-05-07 18:49:00,
2013-05-07 14:54:00,67.8,45.7,29.66,SW,225,0.0,0.0,45,0.00,,,0.00,WeatherDisplay:10.37,2013-05-07 18:54:00,
2013-05-07 14:59:00,67.1,46.2,29.65,SW,225,0.0,0.0,47,0.00,,,0.00,WeatherDisplay:10.37,2013-05-07 18:59:00,
2013-05-07 15:04:00,66.7,46.4,29.65,SSW,202,0.0,0.0,48,0.00,,,0.00,WeatherDisplay:10.37,2013-05-07 19:04:00,
2013-05-07 15:09:00,66.7,46.4,29.65,SSW,202,0.0,0.0,48,0.00,,,0.00,WeatherDisplay:10.37,2013-05-07 19:09:00,
2013-05-07 15:14:00,67.1,46.7,29.65,South,180,0.0,0.0,48,0.00,,,0.00,WeatherDisplay:10.37,2013-05-07 19:14:00,
2013-05-07 15:19:00,67.6,47.2,29.65,SSE,158,0.0,0.0,48,0.00,,,0.00,WeatherDisplay:10.37,2013-05-07 19:19:00,
2013-05-07 15:24:00,67.6,47.2,29.65,South,180,0.0,0.0,48,0.00,,,0.00,WeatherDisplay:10.37,2013-05-07 19:24:00,
2013-05-07 15:29:00,67.3,46.9,29.65,SSW,202,0.0,0.0,48,0.00,,,0.00,WeatherDisplay:10.37,2013-05-07 19:29:00,
2013-05-07 15:34:00,66.9,46.6,29.65,South,180,0.0,0.0,48,0.00,,,0.00,WeatherDisplay:10.37,2013-05-07 19:34:00,
2013-05-07 15:39:00,66.4,46.1,29.65,South,180,0.0,0.0,48,0.00,,,0.00,WeatherDisplay:10.37,2013-05-07 19:39:00,
2013-05-07 15:44:00,65.8,46.1,29.65,South,180,0.0,0.0,49,0.00,,,0.00,WeatherDisplay:10.37,2013-05-07 19:44:00,
2013-05-07 15:49:00,65.3,45.6,29.65,South,180,0.0,0.0,49,0.00,,,0.00,WeatherDisplay:10.37,2013-05-07 19:49:00,
2013-05-07 15:54:00,64.9,45.8,29.64,South,180,0.0,0.0,50,0.00,,,0.00,WeatherDisplay:10.37,2013-05-07 19:54:00,
2013-05-07 15:59:00,64.8,45.7,29.65,South,180,0.0,0.0,50,0.00,,,0.00,WeatherDisplay:10.37,2013-05-07 19:59:00,
2013-05-07 16:04:00,64.6,46.0,29.65,South,180,0.0,0.0,51,0.00,,,0.00,WeatherDisplay:10.37,2013-05-07 20:04:00,
2013-05-07 16:09:00,64.2,46.2,29.65,South,180,0.0,0.0,52,0.00,,,0.00,WeatherDisplay:10.37,2013-05-07 20:09:00,
2013-05-07 16:14:00,64.0,46.6,29.65,South,180,0.0,0.0,53,0.00,,,0.00,WeatherDisplay:10.37,2013-05-07 20:14:00,
2013-05-07 16:19:00,63.5,46.1,29.66,South,180,0.0,0.0,53,0.00,,,0.00,WeatherDisplay:10.37,2013-05-07 20:19:00,
2013-05-07 16:24:00,63.3,46.9,29.66,SW,225,0.0,1.1,55,0.00,,,0.00,WeatherDisplay:10.37,2013-05-07 20:24:00,
2013-05-07 16:29:00,63.0,47.0,29.66,SW,225,0.0,0.0,56,0.00,,,0.00,WeatherDisplay:10.37,2013-05-07 20:29:00,
2013-05-07 16:34:00,62.4,47.0,29.66,SW,225,0.0,0.0,57,0.00,,,0.00,WeatherDisplay:10.37,2013-05-07 20:34:00,
2013-05-07 16:39:00,62.4,47.4,29.66,WSW,248,0.0,0.0,58,0.00,,,0.00,WeatherDisplay:10.37,2013-05-07 20:39:00,
2013-05-07 16:44:00,62.1,47.6,29.67,SE,135,0.0,0.0,59,0.00,,,0.00,WeatherDisplay:10.37,2013-05-07 20:44:00,
2013-05-07 16:49:00,61.9,48.3,29.67,South,180,0.0,0.0,61,0.00,,,0.00,WeatherDisplay:10.37,2013-05-07 20:49:00,
2013-05-07 16:54:00,61.7,48.1,29.67,SSE,167,0.0,0.0,61,0.00,,,0.00,WeatherDisplay:10.37,2013-05-07 20:54:00,
2013-05-07 16:59:00,61.5,47.9,29.67,South,180,0.0,0.0,61,0.00,,,0.00,WeatherDisplay:10.37,2013-05-07 20:59:00,
2013-05-07 17:04:00,61.2,47.6,29.67,South,180,0.0,0.0,61,0.00,,,0.00,WeatherDisplay:10.37,2013-05-07 21:04:00,
2013-05-07 17:09:00,61.0,47.9,29.67,South,169,0.0,0.0,62,0.00,,,0.00,WeatherDisplay:10.37,2013-05-07 21:09:00,
2013-05-07 17:14:00,60.6,47.9,29.67,SSE,158,0.0,0.0,63,0.00,,,0.00,WeatherDisplay:10.37,2013-05-07 21:14:00,
2013-05-07 17:19:00,60.4,47.8,29.67,SSE,158,0.0,0.0,63,0.00,,,0.00,WeatherDisplay:10.37,2013-05-07 21:19:00,
2013-05-07 17:24:00,60.1,47.9,29.67,SSE,158,0.0,0.0,64,0.00,,,0.00,WeatherDisplay:10.37,2013-05-07 21:24:00,
2013-05-07 17:29:00,60.1,48.3,29.67,SSE,158,0.0,0.0,65,0.00,,,0.00,WeatherDisplay:10.37,2013-05-07 21:29:00,
2013-05-07 17:34:00,59.9,48.1,29.67,SSE,158,0.0,0.0,65,0.00,,,0.00,WeatherDisplay:10.37,2013-05-07 21:34:00,
2013-05-07 17:39:00,59.7,47.9,29.68,SSE,158,0.0,0.0,65,0.00,,,0.00,WeatherDisplay:10.37,2013-05-07 21:39:00,
2013-05-07 17:44:00,59.7,47.9,29.67,SSE,158,0.0,0.0,65,0.00,,,0.00,WeatherDisplay:10.37,2013-05-07 21:44:00,
2013-05-07 17:49:00,59.6,47.8,29.67,SSE,158,0.0,0.0,65,0.00,,,0.00,WeatherDisplay:10.37,2013-05-07 21:49:00,
2013-05-07 17:54:00,59.5,48.2,29.68,SSE,158,0.0,0.0,66,0.00,,,0.00,WeatherDisplay:10.37,2013-05-07 21:54:00,
2013-05-07 17:59:00,59.3,48.3,29.68,SSE,158,0.0,0.0,67,0.00,,,0.00,WeatherDisplay:10.37,2013-05-07 21:59:00,
2013-05-07 18:04:00,58.8,47.9,29.68,SSE,158,0.0,0.0,67,0.00,,,0.00,WeatherDisplay:10.37,2013-05-07 22:04:00,
2013-05-07 18:09:00,58.8,48.3,29.68,SSE,158,0.0,0.0,68,0.00,,,0.00,WeatherDisplay:10.37,2013-05-07 22:09:00,
2013-05-07 18:14:00,58.8,48.7,29.68,SSE,158,0.0,0.0,69,0.00,,,0.00,WeatherDisplay:10.37,2013-05-07 22:14:00,
2013-05-07 18:19:00,58.8,48.7,29.68,SSE,158,0.0,0.0,69,0.00,,,0.00,WeatherDisplay:10.37,2013-05-07 22:19:00,
2013-05-07 18:24:00,58.8,48.7,29.68,SSE,158,0.0,0.0,69,0.00,,,0.00,WeatherDisplay:10.37,2013-05-07 22:24:00,
2013-05-07 18:29:00,58.8,49.0,29.68,SSE,158,0.0,0.0,70,0.00,,,0.00,WeatherDisplay:10.37,2013-05-07 22:29:00,
2013-05-07 18:34:00,58.6,48.9,29.68,SSE,158,0.0,0.0,70,0.00,,,0.00,WeatherDisplay:10.37,2013-05-07 22:34:00,
2013-05-07 18:39:00,58.3,48.9,29.68,SSE,158,0.0,0.0,71,0.00,,,0.00,WeatherDisplay:10.37,2013-05-07 22:39:00,
2013-05-07 18:44:00,57.9,48.6,29.69,SE,146,0.0,0.0,71,0.00,,,0.00,WeatherDisplay:10.37,2013-05-07 22:44:00,
2013-05-07 18:49:00,57.6,48.6,29.69,SE,135,0.0,0.0,72,0.00,,,0.00,WeatherDisplay:10.37,2013-05-07 22:49:00,
2013-05-07 18:54:00,57.5,48.5,29.69,SE,135,0.0,0.0,72,0.00,,,0.00,WeatherDisplay:10.37,2013-05-07 22:54:00,
2013-05-07 18:59:00,57.6,48.6,29.69,SE,135,0.0,0.0,72,0.00,,,0.00,WeatherDisplay:10.37,2013-05-07 22:59:00,
2013-05-07 19:04:00,57.7,49.1,29.69,SE,135,0.0,0.0,73,0.00,,,0.00,WeatherDisplay:10.37,2013-05-07 23:04:00,
2013-05-07 19:09:00,57.6,48.6,29.69,SE,135,0.0,0.0,72,0.00,,,0.00,WeatherDisplay:10.37,2013-05-07 23:09:00,
2013-05-07 19:14:00,57.5,48.5,29.69,SE,133,0.0,0.0,72,0.00,,,0.00,WeatherDisplay:10.37,2013-05-07 23:14:00,
2013-05-07 19:19:00,57.3,48.7,29.70,ESE,120,0.0,0.0,73,0.00,,,0.00,WeatherDisplay:10.37,2013-05-07 23:19:00,
2013-05-07 19:24:00,57.0,48.8,29.70,SE,124,0.0,0.0,74,0.00,,,0.00,WeatherDisplay:10.37,2013-05-07 23:24:00,
2013-05-07 19:29:00,56.8,48.6,29.70,SE,135,0.0,0.0,74,0.00,,,0.00,WeatherDisplay:10.37,2013-05-07 23:29:00,
2013-05-07 19:34:00,56.8,48.6,29.70,East,90,0.0,0.0,74,0.00,,,0.00,WeatherDisplay:10.37,2013-05-07 23:34:00,
2013-05-07 19:39:00,56.5,48.6,29.70,East,90,0.0,0.0,75,0.00,,,0.00,WeatherDisplay:10.37,2013-05-07 23:39:00,
2013-05-07 19:44:00,56.1,47.9,29.70,ESE,112,0.0,0.0,74,0.00,,,0.00,WeatherDisplay:10.37,2013-05-07 23:44:00,
2013-05-07 19:49:00,55.9,47.8,29.70,ESE,112,0.0,0.0,74,0.00,,,0.00,WeatherDisplay:10.37,2013-05-07 23:49:00,
2013-05-07 19:54:00,55.8,47.6,29.71,ENE,68,0.0,0.0,74,0.00,,,0.00,WeatherDisplay:10.37,2013-05-07 23:54:00,
2013-05-07 19:59:00,55.6,47.4,29.72,ENE,68,0.0,0.0,74,0.00,,,0.00,WeatherDisplay:10.37,2013-05-07 23:59:00,
2013-05-07 20:04:00,55.6,47.8,29.72,ENE,68,0.0,0.0,75,0.00,,,0.00,WeatherDisplay:10.37,2013-05-08 00:04:00,
2013-05-07 20:09:00,55.4,47.6,29.72,NE,55,0.0,0.0,75,0.00,,,0.00,WeatherDisplay:10.37,2013-05-08 00:09:00,
2013-05-07 20:14:00,55.2,47.4,29.72,NE,45,0.0,0.0,75,0.00,,,0.00,WeatherDisplay:10.37,2013-05-08 00:14:00,
2013-05-07 20:19:00,55.2,47.7,29.72,NE,45,0.0,0.0,76,0.00,,,0.00,WeatherDisplay:10.37,2013-05-08 00:19:00,
2013-05-07 20:24:00,55.0,47.5,29.72,NE,53,0.0,0.0,76,0.00,,,0.00,WeatherDisplay:10.37,2013-05-08 00:24:00,
2013-05-07 20:29:00,54.7,47.6,29.72,ENE,71,0.0,0.0,77,0.00,,,0.00,WeatherDisplay:10.37,2013-05-08 00:29:00,
2013-05-07 20:34:00,54.7,47.6,29.72,ENE,64,0.0,0.0,77,0.00,,,0.00,WeatherDisplay:10.37,2013-05-08 00:34:00,
2013-05-07 20:39:00,54.5,47.4,29.72,NE,47,0.0,0.0,77,0.00,,,0.00,WeatherDisplay:10.37,2013-05-08 00:39:00,
2013-05-07 20:44:00,54.3,47.3,29.72,NE,45,0.0,0.0,77,0.00,,,0.00,WeatherDisplay:10.37,2013-05-08 00:44:00,
2013-05-07 20:49:00,54.3,47.3,29.72,NE,45,0.0,0.0,77,0.00,,,0.00,WeatherDisplay:10.37,2013-05-08 00:49:00,
2013-05-07 20:54:00,54.3,47.6,29.72,NE,45,0.0,0.0,78,0.00,,,0.00,WeatherDisplay:10.37,2013-05-08 00:54:00,
2013-05-07 20:59:00,54.1,47.4,29.72,NE,45,0.0,0.0,78,0.00,,,0.00,WeatherDisplay:10.37,2013-05-08 00:59:00,
2013-05-07 21:04:00,54.0,47.3,29.72,NE,45,0.0,0.0,78,0.00,,,0.00,WeatherDisplay:10.37,2013-05-08 01:04:00,
2013-05-07 21:09:00,54.0,47.6,29.72,NE,45,0.0,0.0,79,0.00,,,0.00,WeatherDisplay:10.37,2013-05-08 01:09:00,
2013-05-07 21:14:00,53.8,47.4,29.72,NE,45,0.0,0.0,79,0.00,,,0.00,WeatherDisplay:10.37,2013-05-08 01:14:00,
2013-05-07 21:19:00,53.7,47.7,29.72,NE,45,0.0,0.0,80,0.00,,,0.00,WeatherDisplay:10.37,2013-05-08 01:19:00,
2013-05-07 21:24:00,53.4,47.4,29.72,NE,45,0.0,0.0,80,0.00,,,0.00,WeatherDisplay:10.37,2013-05-08 01:24:00,
2013-05-07 21:29:00,53.4,47.4,29.72,NE,45,0.0,0.0,80,0.00,,,0.00,WeatherDisplay:10.37,2013-05-08 01:29:00,
2013-05-07 21:34:00,53.2,47.2,29.72,NE,45,0.0,0.0,80,0.00,,,0.00,WeatherDisplay:10.37,2013-05-08 01:34:00,
2013-05-07 21:39:00,53.2,47.2,29.72,NE,45,0.0,0.0,80,0.00,,,0.00,WeatherDisplay:10.37,2013-05-08 01:39:00,
2013-05-07 21:44:00,53.2,47.2,29.72,NE,45,0.0,0.0,80,0.00,,,0.00,WeatherDisplay:10.37,2013-05-08 01:44:00,
2013-05-07 21:49:00,52.9,47.2,29.72,NE,45,0.0,0.0,81,0.00,,,0.00,WeatherDisplay:10.37,2013-05-08 01:49:00,
2013-05-07 21:54:00,52.8,47.1,29.72,NE,45,0.0,0.0,81,0.00,,,0.00,WeatherDisplay:10.37,2013-05-08 01:54:00,
2013-05-07 21:59:00,52.7,47.0,29.72,NE,45,0.0,0.0,81,0.00,,,0.00,WeatherDisplay:10.37,2013-05-08 01:59:00,
2013-05-07 22:04:00,52.7,47.1,29.72,NE,45,0.0,0.0,81,0.00,,,0.00,WeatherDisplay:10.37,2013-05-08 02:04:00,
2013-05-07 22:09:00,52.9,47.5,29.73,NE,45,0.0,0.0,82,0.00,,,0.00,WeatherDisplay:10.37,2013-05-08 02:09:00,
2013-05-07 22:14:00,52.9,47.2,29.73,NE,45,0.0,0.0,81,0.00,,,0.00,WeatherDisplay:10.37,2013-05-08 02:14:00,
2013-05-07 22:19:00,52.9,47.2,29.73,NE,45,0.0,0.0,81,0.00,,,0.00,WeatherDisplay:10.37,2013-05-08 02:19:00,
2013-05-07 22:24:00,52.9,47.2,29.73,NE,45,0.0,0.0,81,0.00,,,0.00,WeatherDisplay:10.37,2013-05-08 02:24:00,
2013-05-07 22:29:00,52.7,47.0,29.73,NE,45,0.0,0.0,81,0.00,,,0.00,WeatherDisplay:10.37,2013-05-08 02:29:00,
2013-05-07 22:34:00,52.5,46.9,29.73,NE,45,0.0,0.0,81,0.00,,,0.00,WeatherDisplay:10.37,2013-05-08 02:34:00,
2013-05-07 22:39:00,52.5,46.9,29.73,NE,45,0.0,0.0,81,0.00,,,0.00,WeatherDisplay:10.37,2013-05-08 02:39:00,
2013-05-07 22:44:00,52.5,46.5,29.73,NE,45,0.0,0.0,80,0.00,,,0.00,WeatherDisplay:10.37,2013-05-08 02:44:00,
2013-05-07 22:49:00,52.7,46.7,29.74,NE,45,0.0,0.0,80,0.00,,,0.00,WeatherDisplay:10.37,2013-05-08 02:49:00,
2013-05-07 22:54:00,52.7,47.0,29.74,NE,45,0.0,0.0,81,0.00,,,0.00,WeatherDisplay:10.37,2013-05-08 02:54:00,
2013-05-07 22:59:00,52.7,47.0,29.73,NE,45,0.0,0.0,81,0.00,,,0.00,WeatherDisplay:10.37,2013-05-08 02:59:00,
2013-05-07 23:04:00,52.5,46.9,29.73,NE,45,0.0,0.0,81,0.00,,,0.00,WeatherDisplay:10.37,2013-05-08 03:04:00,
2013-05-07 23:09:00,52.5,46.9,29.73,NE,45,0.0,0.0,81,0.00,,,0.00,WeatherDisplay:10.37,2013-05-08 03:09:00,
2013-05-07 23:14:00,52.3,46.7,29.73,NE,45,0.0,0.0,81,0.00,,,0.00,WeatherDisplay:10.37,2013-05-08 03:14:00,
2013-05-07 23:19:00,52.5,46.9,29.73,NE,45,0.0,0.0,81,0.00,,,0.00,WeatherDisplay:10.37,2013-05-08 03:19:00,
2013-05-07 23:24:00,52.5,46.9,29.73,NE,45,0.0,0.0,81,0.00,,,0.00,WeatherDisplay:10.37,2013-05-08 03:24:00,
2013-05-07 23:29:00,52.7,46.7,29.73,NE,45,0.0,0.0,80,0.00,,,0.00,WeatherDisplay:10.37,2013-05-08 03:29:00,
2013-05-07 23:34:00,52.9,46.9,29.72,NE,45,0.0,0.0,80,0.00,,,0.00,WeatherDisplay:10.37,2013-05-08 03:34:00,
2013-05-07 23:39:00,53.0,47.0,29.72,NE,45,0.0,0.0,80,0.00,,,0.00,WeatherDisplay:10.37,2013-05-08 03:39:00,
2013-05-07 23:44:00,53.1,47.1,29.72,NE,45,0.0,0.0,80,0.00,,,0.00,WeatherDisplay:10.37,2013-05-08 03:44:00,
2013-05-07 23:49:00,53.1,47.1,29.73,NE,45,0.0,0.0,80,0.00,,,0.00,WeatherDisplay:10.37,2013-05-08 03:49:00,
2013-05-07 23:54:00,53.2,47.2,29.72,NE,45,0.0,0.0,80,0.00,,,0.00,WeatherDisplay:10.37,2013-05-08 03:54:00,
2013-05-07 23:59:00,53.2,47.2,29.73,NE,45,0.0,0.0,80,0.00,,,0.00,WeatherDisplay:10.37,2013-05-08 03:59:00,